{"data":{"norad_id":59096,"epoch":"2026-05-24T17:50:35.745792Z","epoch_age_seconds":97313,"freshness":"FRESH","line1":"1 59096U 24041Y   26144.74346928  .00002965  00000+0  11716-3 0  9990","line2":"2 59096  43.0022 241.1288 0001571 267.7808  92.2864 15.27601818125907","mean_motion":15.27601818,"eccentricity":0.0001571,"inclination_deg":43.0022,"raan_deg":241.1288,"arg_perigee_deg":267.7808,"mean_anomaly_deg":92.2864,"bstar":0.00011716,"rev_number":12590,"period_min":94.265402347145,"perigee_km":481.90588380393,"apogee_km":484.06164794856,"semimajor_km":6861.1207658762,"source":"CELESTRAK","updated_at":"2026-05-25T13:38:18.831924Z"}}